Year,Month,Day,Hour,Minute,Value (Times are PST for windspeed in km/hr)
2019,09,15,00,00,0.00
2019,09,15,00,01,0.00
2019,09,15,00,02,0.00
2019,09,15,00,03,0.00
2019,09,15,00,04,0.00
2019,09,15,00,05,0.00
2019,09,15,00,06,0.00
2019,09,15,00,07,0.00
2019,09,15,00,08,0.00
2019,09,15,00,09,0.00
2019,09,15,00,10,0.00
2019,09,15,00,11,0.00
2019,09,15,00,12,0.00
2019,09,15,00,13,0.00
2019,09,15,00,14,0.00
2019,09,15,00,15,5.20
2019,09,15,00,16,7.70
2019,09,15,00,17,12.30
2019,09,15,00,18,10.40
2019,09,15,00,19,0.00
2019,09,15,00,20,3.50
2019,09,15,00,21,6.80
2019,09,15,00,22,5.30
2019,09,15,00,23,10.90
2019,09,15,00,24,9.10
2019,09,15,00,25,7.00
2019,09,15,00,26,5.70
2019,09,15,00,27,0.00
2019,09,15,00,28,0.00
2019,09,15,00,29,0.00
2019,09,15,00,30,0.00
2019,09,15,00,31,0.00
2019,09,15,00,32,0.00
2019,09,15,00,33,0.00
2019,09,15,00,34,0.00
2019,09,15,00,35,0.00
2019,09,15,00,36,0.00
2019,09,15,00,37,0.00
2019,09,15,00,38,0.00
2019,09,15,00,39,0.00
2019,09,15,00,40,0.00
2019,09,15,00,41,0.00
2019,09,15,00,42,0.00
2019,09,15,00,43,0.00
2019,09,15,00,44,0.00
2019,09,15,00,45,0.00
2019,09,15,00,46,0.00
2019,09,15,00,47,0.00
2019,09,15,00,48,0.00
2019,09,15,00,49,0.00
2019,09,15,00,50,0.00
2019,09,15,00,51,0.00
2019,09,15,00,52,0.00
2019,09,15,00,53,0.00
2019,09,15,00,54,0.20
2019,09,15,00,55,2.60
2019,09,15,00,56,7.10
2019,09,15,00,57,7.10
2019,09,15,00,58,4.80
2019,09,15,00,59,0.10
2019,09,15,01,00,0.00
2019,09,15,01,01,0.00
2019,09,15,01,02,0.00
2019,09,15,01,03,0.00
2019,09,15,01,04,0.00
2019,09,15,01,05,0.00
2019,09,15,01,06,0.00
2019,09,15,01,07,0.00
2019,09,15,01,08,0.00
2019,09,15,01,09,0.00
2019,09,15,01,10,0.00
2019,09,15,01,11,0.00
2019,09,15,01,12,0.00
2019,09,15,01,13,0.00
2019,09,15,01,14,0.00
2019,09,15,01,15,4.10
2019,09,15,01,16,4.20
2019,09,15,01,17,0.00
2019,09,15,01,18,0.00
2019,09,15,01,19,0.10
2019,09,15,01,20,4.50
2019,09,15,01,21,9.80
2019,09,15,01,22,10.00
2019,09,15,01,23,4.60
2019,09,15,01,24,1.40
2019,09,15,01,25,0.60
2019,09,15,01,26,2.70
2019,09,15,01,27,1.50
2019,09,15,01,28,12.40
2019,09,15,01,29,8.50
2019,09,15,01,30,0.00
2019,09,15,01,31,8.00
2019,09,15,01,32,5.80
2019,09,15,01,33,0.00
2019,09,15,01,34,1.00
2019,09,15,01,35,1.40
2019,09,15,01,36,0.00
2019,09,15,01,37,0.00
2019,09,15,01,38,0.00
2019,09,15,01,39,0.10
2019,09,15,01,40,0.20
2019,09,15,01,41,0.00
2019,09,15,01,42,0.00
2019,09,15,01,43,0.00
2019,09,15,01,44,0.00
2019,09,15,01,45,0.00
2019,09,15,01,46,0.00
2019,09,15,01,47,0.10
2019,09,15,01,48,0.00
2019,09,15,01,49,0.00
2019,09,15,01,50,0.10
2019,09,15,01,51,0.10
2019,09,15,01,52,0.00
2019,09,15,01,53,0.00
2019,09,15,01,54,0.00
2019,09,15,01,55,0.00
2019,09,15,01,56,0.10
2019,09,15,01,57,0.00
2019,09,15,01,58,0.10
2019,09,15,01,59,0.00
2019,09,15,02,00,0.00
2019,09,15,02,01,0.00
2019,09,15,02,02,0.00
2019,09,15,02,03,0.00
2019,09,15,02,04,0.00
2019,09,15,02,05,0.00
2019,09,15,02,06,0.00
2019,09,15,02,07,0.00
2019,09,15,02,08,0.00
2019,09,15,02,09,0.00
2019,09,15,02,10,0.00
2019,09,15,02,11,0.00
2019,09,15,02,12,1.30
2019,09,15,02,13,4.10
2019,09,15,02,14,0.00
2019,09,15,02,15,0.00
2019,09,15,02,16,0.10
2019,09,15,02,17,1.40
2019,09,15,02,18,0.00
2019,09,15,02,19,0.00
2019,09,15,02,20,0.00
2019,09,15,02,21,0.00
2019,09,15,02,22,0.00
2019,09,15,02,23,0.00
2019,09,15,02,24,0.00
2019,09,15,02,25,0.00
2019,09,15,02,26,0.00
2019,09,15,02,27,0.00
2019,09,15,02,28,0.00
2019,09,15,02,29,0.00
2019,09,15,02,30,0.00
2019,09,15,02,31,0.00
2019,09,15,02,32,0.00
2019,09,15,02,33,0.00
2019,09,15,02,34,0.00
2019,09,15,02,35,0.00
2019,09,15,02,36,0.00
2019,09,15,02,37,0.00
2019,09,15,02,38,0.00
2019,09,15,02,39,0.00
2019,09,15,02,40,0.00
2019,09,15,02,41,0.00
2019,09,15,02,42,0.00
2019,09,15,02,43,0.00
2019,09,15,02,44,0.00
2019,09,15,02,45,0.00
2019,09,15,02,46,0.00
2019,09,15,02,47,0.00
2019,09,15,02,48,0.00
2019,09,15,02,49,0.00
2019,09,15,02,50,0.00
2019,09,15,02,51,0.00
2019,09,15,02,52,0.00
2019,09,15,02,53,0.00
2019,09,15,02,54,0.00
2019,09,15,02,55,0.00
2019,09,15,02,56,0.00
2019,09,15,02,57,0.00
2019,09,15,02,58,0.00
2019,09,15,02,59,0.00
2019,09,15,03,00,0.00
2019,09,15,03,01,0.00
2019,09,15,03,02,5.30
2019,09,15,03,03,0.50
2019,09,15,03,04,0.00
2019,09,15,03,05,0.00
2019,09,15,03,06,3.90
2019,09,15,03,07,4.30
2019,09,15,03,08,0.00
2019,09,15,03,09,0.10
2019,09,15,03,10,6.50
2019,09,15,03,11,4.40
2019,09,15,03,12,0.30
2019,09,15,03,13,6.20
2019,09,15,03,14,0.10
2019,09,15,03,15,0.00
2019,09,15,03,16,0.00
2019,09,15,03,17,0.00
2019,09,15,03,18,0.00
2019,09,15,03,19,0.00
2019,09,15,03,20,0.00
2019,09,15,03,21,0.00
2019,09,15,03,22,0.00
2019,09,15,03,23,0.00
2019,09,15,03,24,0.00
2019,09,15,03,25,0.00
2019,09,15,03,26,0.00
2019,09,15,03,27,0.00
2019,09,15,03,28,0.00
2019,09,15,03,29,0.00
2019,09,15,03,30,0.00
2019,09,15,03,31,0.00
2019,09,15,03,32,0.00
2019,09,15,03,33,0.00
2019,09,15,03,34,0.00
2019,09,15,03,35,0.00
2019,09,15,03,36,0.00
2019,09,15,03,37,0.00
2019,09,15,03,38,0.00
2019,09,15,03,39,0.00
2019,09,15,03,40,0.00
2019,09,15,03,41,0.00
2019,09,15,03,42,0.00
2019,09,15,03,43,0.00
2019,09,15,03,44,0.10
2019,09,15,03,45,0.10
2019,09,15,03,46,0.00
2019,09,15,03,47,0.00
2019,09,15,03,48,0.00
2019,09,15,03,49,0.00
2019,09,15,03,50,0.00
2019,09,15,03,51,0.00
2019,09,15,03,52,0.00
2019,09,15,03,53,0.00
2019,09,15,03,54,0.00
2019,09,15,03,55,0.00
2019,09,15,03,56,0.00
2019,09,15,03,57,0.00
2019,09,15,03,58,0.00
2019,09,15,03,59,0.00
2019,09,15,04,00,0.00
2019,09,15,04,01,0.00
2019,09,15,04,02,0.00
2019,09,15,04,03,0.00
2019,09,15,04,04,0.00
2019,09,15,04,05,0.00
2019,09,15,04,06,0.00
2019,09,15,04,07,0.00
2019,09,15,04,08,0.00
2019,09,15,04,09,0.00
2019,09,15,04,10,0.00
2019,09,15,04,11,0.00
2019,09,15,04,12,0.00
2019,09,15,04,13,0.00
2019,09,15,04,14,1.00
2019,09,15,04,15,4.20
2019,09,15,04,16,6.50
2019,09,15,04,17,7.00
2019,09,15,04,18,8.30
2019,09,15,04,19,2.30
2019,09,15,04,20,2.50
2019,09,15,04,21,4.00
2019,09,15,04,22,0.10
2019,09,15,04,23,0.00
2019,09,15,04,24,0.10
2019,09,15,04,25,3.90
2019,09,15,04,26,0.00
2019,09,15,04,27,0.00
2019,09,15,04,28,3.00
2019,09,15,04,29,8.50
2019,09,15,04,30,0.00
2019,09,15,04,31,3.70
2019,09,15,04,32,0.00
2019,09,15,04,33,0.20
2019,09,15,04,34,5.70
2019,09,15,04,35,7.80
2019,09,15,04,36,2.40
2019,09,15,04,37,0.00
2019,09,15,04,38,0.00
2019,09,15,04,39,0.30
2019,09,15,04,40,0.00
2019,09,15,04,41,0.00
2019,09,15,04,42,0.00
2019,09,15,04,43,0.00
2019,09,15,04,44,0.00
2019,09,15,04,45,0.10
2019,09,15,04,46,4.20
2019,09,15,04,47,0.70
2019,09,15,04,48,0.00
2019,09,15,04,49,0.90
2019,09,15,04,50,3.80
2019,09,15,04,51,7.60
2019,09,15,04,52,0.00
2019,09,15,04,53,0.10
2019,09,15,04,54,0.00
2019,09,15,04,55,0.00
2019,09,15,04,56,0.00
2019,09,15,04,57,0.00
2019,09,15,04,58,0.00
2019,09,15,04,59,0.00
2019,09,15,05,00,0.10
2019,09,15,05,01,0.00
2019,09,15,05,02,0.20
2019,09,15,05,03,0.20
2019,09,15,05,04,0.00
2019,09,15,05,05,0.00
2019,09,15,05,06,0.40
2019,09,15,05,07,1.30
2019,09,15,05,08,0.00
2019,09,15,05,09,0.00
2019,09,15,05,10,0.00
2019,09,15,05,11,0.00
2019,09,15,05,12,0.00
2019,09,15,05,13,0.00
2019,09,15,05,14,0.00
2019,09,15,05,15,0.00
2019,09,15,05,16,0.00
2019,09,15,05,17,0.00
2019,09,15,05,18,0.00
2019,09,15,05,19,0.00
2019,09,15,05,20,0.00
2019,09,15,05,21,0.00
2019,09,15,05,22,0.00
2019,09,15,05,23,0.00
2019,09,15,05,24,0.00
2019,09,15,05,25,0.00
2019,09,15,05,26,0.00
2019,09,15,05,27,0.00
2019,09,15,05,28,0.00
2019,09,15,05,29,0.00
2019,09,15,05,30,0.00
2019,09,15,05,31,0.00
2019,09,15,05,32,0.00
2019,09,15,05,33,0.00
2019,09,15,05,34,0.00
2019,09,15,05,35,0.00
2019,09,15,05,36,0.00
2019,09,15,05,37,0.00
2019,09,15,05,38,0.00
2019,09,15,05,39,0.00
2019,09,15,05,40,0.00
2019,09,15,05,41,0.00
2019,09,15,05,42,0.00
2019,09,15,05,43,0.00
2019,09,15,05,44,0.10
2019,09,15,05,45,0.00
2019,09,15,05,46,0.00
2019,09,15,05,47,0.00
2019,09,15,05,48,0.00
2019,09,15,05,49,0.00
2019,09,15,05,50,0.00
2019,09,15,05,51,0.00
2019,09,15,05,52,0.00
2019,09,15,05,53,0.70
2019,09,15,05,54,0.00
2019,09,15,05,55,0.50
2019,09,15,05,56,7.20
2019,09,15,05,57,0.00
2019,09,15,05,58,0.00
2019,09,15,05,59,0.00
2019,09,15,06,00,0.00
2019,09,15,06,01,0.00
2019,09,15,06,02,0.00
2019,09,15,06,03,0.00
2019,09,15,06,04,0.00
2019,09,15,06,05,0.00
2019,09,15,06,06,0.00
2019,09,15,06,07,0.00
2019,09,15,06,08,0.00
2019,09,15,06,09,0.00
2019,09,15,06,10,0.00
2019,09,15,06,11,0.00
2019,09,15,06,12,0.00
2019,09,15,06,13,0.00
2019,09,15,06,14,0.00
2019,09,15,06,15,0.00
2019,09,15,06,16,0.00
2019,09,15,06,17,0.00
2019,09,15,06,18,0.00
2019,09,15,06,19,0.00
2019,09,15,06,20,0.00
2019,09,15,06,21,0.00
2019,09,15,06,22,0.00
2019,09,15,06,23,0.00
2019,09,15,06,24,0.00
2019,09,15,06,25,0.00
2019,09,15,06,26,0.00
2019,09,15,06,27,0.00
2019,09,15,06,28,0.00
2019,09,15,06,29,0.00
2019,09,15,06,30,0.00
2019,09,15,06,31,0.00
2019,09,15,06,32,0.00
2019,09,15,06,33,0.00
2019,09,15,06,34,0.00
2019,09,15,06,35,0.00
2019,09,15,06,36,0.10
2019,09,15,06,37,0.00
2019,09,15,06,38,0.00
2019,09,15,06,39,0.00
2019,09,15,06,40,0.00
2019,09,15,06,41,0.00
2019,09,15,06,42,2.00
2019,09,15,06,43,0.00
2019,09,15,06,44,0.00
2019,09,15,06,45,0.00
2019,09,15,06,46,0.00
2019,09,15,06,47,0.00
2019,09,15,06,48,0.00
2019,09,15,06,49,0.00
2019,09,15,06,50,0.00
2019,09,15,06,51,0.00
2019,09,15,06,52,0.00
2019,09,15,06,53,0.00
2019,09,15,06,54,0.00
2019,09,15,06,55,0.10
2019,09,15,06,56,0.00
2019,09,15,06,57,0.00
2019,09,15,06,58,0.00
2019,09,15,06,59,0.00
2019,09,15,07,00,0.00
2019,09,15,07,01,0.00
2019,09,15,07,02,0.00
2019,09,15,07,03,1.10
2019,09,15,07,04,7.10
2019,09,15,07,05,8.40
2019,09,15,07,06,5.50
2019,09,15,07,07,5.80
2019,09,15,07,08,9.30
2019,09,15,07,09,9.40
2019,09,15,07,10,11.90
2019,09,15,07,11,10.20
2019,09,15,07,12,16.10
2019,09,15,07,13,19.90
2019,09,15,07,14,18.10
2019,09,15,07,15,22.10
2019,09,15,07,16,13.10
2019,09,15,07,17,14.30
2019,09,15,07,18,20.00
2019,09,15,07,19,17.10
2019,09,15,07,20,14.00
2019,09,15,07,21,17.20
2019,09,15,07,22,14.20
2019,09,15,07,23,10.90
2019,09,15,07,24,19.50
2019,09,15,07,25,16.90
2019,09,15,07,26,7.80
2019,09,15,07,27,14.30
2019,09,15,07,28,11.20
2019,09,15,07,29,8.30
2019,09,15,07,30,7.00
2019,09,15,07,31,10.50
2019,09,15,07,32,11.30
2019,09,15,07,33,4.50
2019,09,15,07,34,3.50
2019,09,15,07,35,0.10
2019,09,15,07,36,2.50
2019,09,15,07,37,4.80
2019,09,15,07,38,8.00
2019,09,15,07,39,2.60
2019,09,15,07,40,7.80
2019,09,15,07,41,5.40
2019,09,15,07,42,11.40
2019,09,15,07,43,12.10
2019,09,15,07,44,4.00
2019,09,15,07,45,0.00
2019,09,15,07,46,0.00
2019,09,15,07,47,0.00
2019,09,15,07,48,0.00
2019,09,15,07,49,0.00
2019,09,15,07,50,0.00
2019,09,15,07,51,0.00
2019,09,15,07,52,0.10
2019,09,15,07,53,0.00
2019,09,15,07,54,0.20
2019,09,15,07,55,0.10
2019,09,15,07,56,0.00
2019,09,15,07,57,2.70
2019,09,15,07,58,2.30
2019,09,15,07,59,0.00
2019,09,15,08,00,0.00
2019,09,15,08,01,0.00
2019,09,15,08,02,0.00
2019,09,15,08,03,0.00
2019,09,15,08,04,0.00
2019,09,15,08,05,0.00
2019,09,15,08,06,0.10
2019,09,15,08,07,0.00
2019,09,15,08,08,0.00
2019,09,15,08,09,0.00
2019,09,15,08,10,0.00
2019,09,15,08,11,0.20
2019,09,15,08,12,5.50
2019,09,15,08,13,7.90
2019,09,15,08,14,5.10
2019,09,15,08,15,3.20
2019,09,15,08,16,1.40
2019,09,15,08,17,0.00
2019,09,15,08,18,5.50
2019,09,15,08,19,1.80
2019,09,15,08,20,4.60
2019,09,15,08,21,11.40
2019,09,15,08,22,2.90
2019,09,15,08,23,0.00
2019,09,15,08,24,0.00
2019,09,15,08,25,0.00
2019,09,15,08,26,0.20
2019,09,15,08,27,1.10
2019,09,15,08,28,0.00
2019,09,15,08,29,5.60
2019,09,15,08,30,0.00
2019,09,15,08,31,0.00
2019,09,15,08,32,0.90
2019,09,15,08,33,2.30
2019,09,15,08,34,2.00
2019,09,15,08,35,0.00
2019,09,15,08,36,2.20
2019,09,15,08,37,6.30
2019,09,15,08,38,0.00
2019,09,15,08,39,8.60
2019,09,15,08,40,6.20
2019,09,15,08,41,16.10
2019,09,15,08,42,10.70
2019,09,15,08,43,8.60
2019,09,15,08,44,22.90
2019,09,15,08,45,12.70
2019,09,15,08,46,9.20
2019,09,15,08,47,17.30
2019,09,15,08,48,12.00
2019,09,15,08,49,14.40
2019,09,15,08,50,10.90
2019,09,15,08,51,0.00
2019,09,15,08,52,0.00
2019,09,15,08,53,5.60
2019,09,15,08,54,15.60
2019,09,15,08,55,6.40
2019,09,15,08,56,2.70
2019,09,15,08,57,9.70
2019,09,15,08,58,14.30
2019,09,15,08,59,10.90
2019,09,15,09,00,1.30
2019,09,15,09,01,7.80
2019,09,15,09,02,11.60
2019,09,15,09,03,12.20
2019,09,15,09,04,7.20
2019,09,15,09,05,0.90
2019,09,15,09,06,15.50
2019,09,15,09,07,19.60
2019,09,15,09,08,16.70
2019,09,15,09,09,15.80
2019,09,15,09,10,5.60
2019,09,15,09,11,0.10
2019,09,15,09,12,2.90
2019,09,15,09,13,12.10
2019,09,15,09,14,13.60
2019,09,15,09,15,8.70
2019,09,15,09,16,10.20
2019,09,15,09,17,6.10
2019,09,15,09,18,13.30
2019,09,15,09,19,3.30
2019,09,15,09,20,0.00
2019,09,15,09,21,3.90
2019,09,15,09,22,0.10
2019,09,15,09,23,2.60
2019,09,15,09,24,13.70
2019,09,15,09,25,6.90
2019,09,15,09,26,0.00
2019,09,15,09,27,0.00
2019,09,15,09,28,0.00
2019,09,15,09,29,0.00
2019,09,15,09,30,3.50
2019,09,15,09,31,0.00
2019,09,15,09,32,0.00
2019,09,15,09,33,0.00
2019,09,15,09,34,0.00
2019,09,15,09,35,0.00
2019,09,15,09,36,0.10
2019,09,15,09,37,0.00
2019,09,15,09,38,0.00
2019,09,15,09,39,8.70
2019,09,15,09,40,11.00
2019,09,15,09,41,7.70
2019,09,15,09,42,3.10
2019,09,15,09,43,0.00
2019,09,15,09,44,7.30
2019,09,15,09,45,11.20
2019,09,15,09,46,17.30
2019,09,15,09,47,11.10
2019,09,15,09,48,10.50
2019,09,15,09,49,9.60
2019,09,15,09,50,11.90
2019,09,15,09,51,14.30
2019,09,15,09,52,7.20
2019,09,15,09,53,8.60
2019,09,15,09,54,10.80
2019,09,15,09,55,15.40
2019,09,15,09,56,12.60
2019,09,15,09,57,11.50
2019,09,15,09,58,10.50
2019,09,15,09,59,13.30
2019,09,15,10,00,20.10
2019,09,15,10,01,12.10
2019,09,15,10,02,10.20
2019,09,15,10,03,8.60
2019,09,15,10,04,15.40
2019,09,15,10,05,17.30
2019,09,15,10,06,7.20
2019,09,15,10,07,6.50
2019,09,15,10,08,13.40
2019,09,15,10,09,11.50
2019,09,15,10,10,11.60
2019,09,15,10,11,3.80
2019,09,15,10,12,1.90
2019,09,15,10,13,0.50
2019,09,15,10,14,5.80
2019,09,15,10,15,7.40
2019,09,15,10,16,0.00
2019,09,15,10,17,1.10
2019,09,15,10,18,11.00
2019,09,15,10,19,12.40
2019,09,15,10,20,2.80
2019,09,15,10,21,0.10
2019,09,15,10,22,0.00
2019,09,15,10,23,0.00
2019,09,15,10,24,0.00
2019,09,15,10,25,0.00
2019,09,15,10,26,0.00
2019,09,15,10,27,0.00
2019,09,15,10,28,0.00
2019,09,15,10,29,0.00
2019,09,15,10,30,0.00
2019,09,15,10,31,0.00
2019,09,15,10,32,0.00
2019,09,15,10,33,0.00
2019,09,15,10,34,0.00
2019,09,15,10,35,0.00
2019,09,15,10,36,0.00
2019,09,15,10,37,1.30
2019,09,15,10,38,6.30
2019,09,15,10,39,1.10
2019,09,15,10,40,4.60
2019,09,15,10,41,6.60
2019,09,15,10,42,10.20
2019,09,15,10,43,10.70
2019,09,15,10,44,5.80
2019,09,15,10,45,0.10
2019,09,15,10,46,2.60
2019,09,15,10,47,10.80
2019,09,15,10,48,0.00
2019,09,15,10,49,0.00
2019,09,15,10,50,0.00
2019,09,15,10,51,0.00
2019,09,15,10,52,0.00
2019,09,15,10,53,0.00
2019,09,15,10,54,0.10
2019,09,15,10,55,0.00
2019,09,15,10,56,0.00
2019,09,15,10,57,1.20
2019,09,15,10,58,11.70
2019,09,15,10,59,8.70
2019,09,15,11,00,0.00
2019,09,15,11,01,0.10
2019,09,15,11,02,0.00
2019,09,15,11,03,0.10
2019,09,15,11,04,4.60
2019,09,15,11,05,9.70
2019,09,15,11,06,1.50
2019,09,15,11,07,0.00
2019,09,15,11,08,6.40
2019,09,15,11,09,6.20
2019,09,15,11,10,6.00
2019,09,15,11,11,12.90
2019,09,15,11,12,11.80
2019,09,15,11,13,0.40
2019,09,15,11,14,0.00
2019,09,15,11,15,0.00
2019,09,15,11,16,0.00
2019,09,15,11,17,0.00
2019,09,15,11,18,0.00
2019,09,15,11,19,0.00
2019,09,15,11,20,0.10
2019,09,15,11,21,1.10
2019,09,15,11,22,4.80
2019,09,15,11,23,0.00
2019,09,15,11,24,0.00
2019,09,15,11,25,0.20
2019,09,15,11,26,7.30
2019,09,15,11,27,5.20
2019,09,15,11,28,8.40
2019,09,15,11,29,3.30
2019,09,15,11,30,7.00
2019,09,15,11,31,12.60
2019,09,15,11,32,12.90
2019,09,15,11,33,16.20
2019,09,15,11,34,2.60
2019,09,15,11,35,1.50
2019,09,15,11,36,9.40
2019,09,15,11,37,8.80
2019,09,15,11,38,6.90
2019,09,15,11,39,7.70
2019,09,15,11,40,15.90
2019,09,15,11,41,6.70
2019,09,15,11,42,14.40
2019,09,15,11,43,4.50
2019,09,15,11,44,8.20
2019,09,15,11,45,13.30
2019,09,15,11,46,5.30
2019,09,15,11,47,10.00
2019,09,15,11,48,4.40
2019,09,15,11,49,7.80
2019,09,15,11,50,4.60
2019,09,15,11,51,8.00
2019,09,15,11,52,16.60
2019,09,15,11,53,15.40
2019,09,15,11,54,21.30
2019,09,15,11,55,21.10
2019,09,15,11,56,11.50
2019,09,15,11,57,16.80
2019,09,15,11,58,1.20
2019,09,15,11,59,0.00
2019,09,15,12,00,0.00
2019,09,15,12,01,0.90
2019,09,15,12,02,21.90
2019,09,15,12,03,10.40
2019,09,15,12,04,15.10
2019,09,15,12,05,1.70
2019,09,15,12,06,21.10
2019,09,15,12,07,7.30
2019,09,15,12,08,3.50
2019,09,15,12,09,0.20
2019,09,15,12,10,4.10
2019,09,15,12,11,0.00
2019,09,15,12,12,0.00
2019,09,15,12,13,0.00
2019,09,15,12,14,8.30
2019,09,15,12,15,0.80
2019,09,15,12,16,0.10
2019,09,15,12,17,0.00
2019,09,15,12,18,1.20
2019,09,15,12,19,9.40
2019,09,15,12,20,1.20
2019,09,15,12,21,0.00
2019,09,15,12,22,0.10
2019,09,15,12,23,1.70
2019,09,15,12,24,2.90
2019,09,15,12,25,13.40
2019,09,15,12,26,0.00
2019,09,15,12,27,8.60
2019,09,15,12,28,14.90
2019,09,15,12,29,9.90
2019,09,15,12,30,11.30
2019,09,15,12,31,4.10
2019,09,15,12,32,0.00
2019,09,15,12,33,4.30
2019,09,15,12,34,0.00
2019,09,15,12,35,0.00
2019,09,15,12,36,9.50
2019,09,15,12,37,18.50
2019,09,15,12,38,4.50
2019,09,15,12,39,5.60
2019,09,15,12,40,0.20
2019,09,15,12,41,12.20
2019,09,15,12,42,12.40
2019,09,15,12,43,0.80
2019,09,15,12,44,5.70
2019,09,15,12,45,5.30
2019,09,15,12,46,0.00
2019,09,15,12,47,11.60
2019,09,15,12,48,15.80
2019,09,15,12,49,12.50
2019,09,15,12,50,13.70
2019,09,15,12,51,12.70
2019,09,15,12,52,14.30
2019,09,15,12,53,9.50
2019,09,15,12,54,8.40
2019,09,15,12,55,8.10
2019,09,15,12,56,8.50
2019,09,15,12,57,7.20
2019,09,15,12,58,5.60
2019,09,15,12,59,12.90
2019,09,15,13,00,0.00
2019,09,15,13,01,7.40
2019,09,15,13,02,6.30
2019,09,15,13,03,6.30
2019,09,15,13,04,4.50
2019,09,15,13,05,3.50
2019,09,15,13,06,0.00
2019,09,15,13,07,0.00
2019,09,15,13,08,6.00
2019,09,15,13,09,10.50
2019,09,15,13,10,7.90
2019,09,15,13,11,12.90
2019,09,15,13,12,5.20
2019,09,15,13,13,0.20
2019,09,15,13,14,9.70
2019,09,15,13,15,0.20
2019,09,15,13,16,0.10
2019,09,15,13,17,0.00
2019,09,15,13,18,0.10
2019,09,15,13,19,0.00
2019,09,15,13,20,10.00
2019,09,15,13,21,9.30
2019,09,15,13,22,2.40
2019,09,15,13,23,7.50
2019,09,15,13,24,0.00
2019,09,15,13,25,3.90
2019,09,15,13,26,5.10
2019,09,15,13,27,8.10
2019,09,15,13,28,9.50
2019,09,15,13,29,3.10
2019,09,15,13,30,12.90
2019,09,15,13,31,9.30
2019,09,15,13,32,14.60
2019,09,15,13,33,11.80
2019,09,15,13,34,13.70
2019,09,15,13,35,0.80
2019,09,15,13,36,0.00
2019,09,15,13,37,0.10
2019,09,15,13,38,0.10
2019,09,15,13,39,0.00
2019,09,15,13,40,0.00
2019,09,15,13,41,7.70
2019,09,15,13,42,0.00
2019,09,15,13,43,6.00
2019,09,15,13,44,0.10
2019,09,15,13,45,0.00
2019,09,15,13,46,0.20
2019,09,15,13,47,0.00
2019,09,15,13,48,0.20
2019,09,15,13,49,0.20
2019,09,15,13,50,10.50
2019,09,15,13,51,7.50
2019,09,15,13,52,0.00
2019,09,15,13,53,0.00
2019,09,15,13,54,5.80
2019,09,15,13,55,10.30
2019,09,15,13,56,6.30
2019,09,15,13,57,4.30
2019,09,15,13,58,4.30
2019,09,15,13,59,0.00
2019,09,15,14,00,0.00
2019,09,15,14,01,2.40
2019,09,15,14,02,4.20
2019,09,15,14,03,2.70
2019,09,15,14,04,4.20
2019,09,15,14,05,15.40
2019,09,15,14,06,8.70
2019,09,15,14,07,4.40
2019,09,15,14,08,10.80
2019,09,15,14,09,14.00
2019,09,15,14,10,18.40
2019,09,15,14,11,11.20
2019,09,15,14,12,13.00
2019,09,15,14,13,22.50
2019,09,15,14,14,18.90
2019,09,15,14,15,8.50
2019,09,15,14,16,9.40
2019,09,15,14,17,8.20
2019,09,15,14,18,5.00
2019,09,15,14,19,6.90
2019,09,15,14,20,9.80
2019,09,15,14,21,0.20
2019,09,15,14,22,0.00
2019,09,15,14,23,0.00
2019,09,15,14,24,7.60
2019,09,15,14,25,18.50
2019,09,15,14,26,20.80
2019,09,15,14,27,14.70
2019,09,15,14,28,15.40
2019,09,15,14,29,13.00
2019,09,15,14,30,22.00
2019,09,15,14,31,19.60
2019,09,15,14,32,20.00
2019,09,15,14,33,2.20
2019,09,15,14,34,2.10
2019,09,15,14,35,2.50
2019,09,15,14,36,6.70
2019,09,15,14,37,0.10
2019,09,15,14,38,3.00
2019,09,15,14,39,1.90
2019,09,15,14,40,0.00
2019,09,15,14,41,0.10
2019,09,15,14,42,0.00
2019,09,15,14,43,0.10
2019,09,15,14,44,10.10
2019,09,15,14,45,9.90
2019,09,15,14,46,21.60
2019,09,15,14,47,21.30
2019,09,15,14,48,22.00
2019,09,15,14,49,20.70
2019,09,15,14,50,10.80
2019,09,15,14,51,0.00
2019,09,15,14,52,3.00
2019,09,15,14,53,25.30
2019,09,15,14,54,24.50
2019,09,15,14,55,19.10
2019,09,15,14,56,23.80
2019,09,15,14,57,9.40
2019,09,15,14,58,18.50
2019,09,15,14,59,11.30
2019,09,15,15,00,10.60
2019,09,15,15,01,9.70
2019,09,15,15,02,15.90
2019,09,15,15,03,5.10
2019,09,15,15,04,15.90
2019,09,15,15,05,13.50
2019,09,15,15,06,26.10
2019,09,15,15,07,27.80
2019,09,15,15,08,13.50
2019,09,15,15,09,21.30
2019,09,15,15,10,23.70
2019,09,15,15,11,25.70
2019,09,15,15,12,18.60
2019,09,15,15,13,13.50
2019,09,15,15,14,4.90
2019,09,15,15,15,1.40
2019,09,15,15,16,4.30
2019,09,15,15,17,4.10
2019,09,15,15,18,13.50
2019,09,15,15,19,14.00
2019,09,15,15,20,17.80
2019,09,15,15,21,12.20
2019,09,15,15,22,11.30
2019,09,15,15,23,3.30
2019,09,15,15,24,1.50
2019,09,15,15,25,0.80
2019,09,15,15,26,0.00
2019,09,15,15,27,0.00
2019,09,15,15,28,4.60
2019,09,15,15,29,23.10
2019,09,15,15,30,16.20
2019,09,15,15,31,14.80
2019,09,15,15,32,14.60
2019,09,15,15,33,11.40
2019,09,15,15,34,6.80
2019,09,15,15,35,24.60
2019,09,15,15,36,12.60
2019,09,15,15,37,15.30
2019,09,15,15,38,24.50
2019,09,15,15,39,15.00
2019,09,15,15,40,23.70
2019,09,15,15,41,22.60
2019,09,15,15,42,25.30
2019,09,15,15,43,18.70
2019,09,15,15,44,15.30
2019,09,15,15,45,19.40
2019,09,15,15,46,11.60
2019,09,15,15,47,25.50
2019,09,15,15,48,16.60
2019,09,15,15,49,23.60
2019,09,15,15,50,25.20
2019,09,15,15,51,16.40
2019,09,15,15,52,16.50
2019,09,15,15,53,8.20
2019,09,15,15,54,6.50
2019,09,15,15,55,18.30
2019,09,15,15,56,14.90
2019,09,15,15,57,4.80
2019,09,15,15,58,6.00
2019,09,15,15,59,6.80
2019,09,15,16,00,2.90
2019,09,15,16,01,2.10
2019,09,15,16,02,11.80
2019,09,15,16,03,2.90
2019,09,15,16,04,10.50
2019,09,15,16,05,9.70
2019,09,15,16,06,8.30
2019,09,15,16,07,6.40
2019,09,15,16,08,0.20
2019,09,15,16,09,0.00
2019,09,15,16,10,1.70
2019,09,15,16,11,10.50
2019,09,15,16,12,1.20
2019,09,15,16,13,0.70
2019,09,15,16,14,2.10
2019,09,15,16,15,7.10
2019,09,15,16,16,0.90
2019,09,15,16,17,0.00
2019,09,15,16,18,0.00
2019,09,15,16,19,0.20
2019,09,15,16,20,7.40
2019,09,15,16,21,0.00
2019,09,15,16,22,0.00
2019,09,15,16,23,0.00
2019,09,15,16,24,0.00
2019,09,15,16,25,0.00
2019,09,15,16,26,0.10
2019,09,15,16,27,0.00
2019,09,15,16,28,0.00
2019,09,15,16,29,0.10
2019,09,15,16,30,0.10
2019,09,15,16,31,0.10
2019,09,15,16,32,5.90
2019,09,15,16,33,10.60
2019,09,15,16,34,0.00
2019,09,15,16,35,5.60
2019,09,15,16,36,7.80
2019,09,15,16,37,4.40
2019,09,15,16,38,0.00
2019,09,15,16,39,6.80
2019,09,15,16,40,13.90
2019,09,15,16,41,9.70
2019,09,15,16,42,4.20
2019,09,15,16,43,10.50
2019,09,15,16,44,10.10
2019,09,15,16,45,8.40
2019,09,15,16,46,6.20
2019,09,15,16,47,0.40
2019,09,15,16,48,0.00
2019,09,15,16,49,0.10
2019,09,15,16,50,0.80
2019,09,15,16,51,0.20
2019,09,15,16,52,0.30
2019,09,15,16,53,0.20
2019,09,15,16,54,2.20
2019,09,15,16,55,6.20
2019,09,15,16,56,9.80
2019,09,15,16,57,5.90
2019,09,15,16,58,8.50
2019,09,15,16,59,7.40
2019,09,15,17,00,2.70
2019,09,15,17,01,3.20
2019,09,15,17,02,1.50
2019,09,15,17,03,6.30
2019,09,15,17,04,6.70
2019,09,15,17,05,7.50
2019,09,15,17,06,0.00
2019,09,15,17,07,3.90
2019,09,15,17,08,4.30
2019,09,15,17,09,7.30
2019,09,15,17,10,2.00
2019,09,15,17,11,16.70
2019,09,15,17,12,16.60
2019,09,15,17,13,11.50
2019,09,15,17,14,0.70
2019,09,15,17,15,0.00
2019,09,15,17,16,0.00
2019,09,15,17,17,1.10
2019,09,15,17,18,10.10
2019,09,15,17,19,1.50
2019,09,15,17,20,4.20
2019,09,15,17,21,0.10
2019,09,15,17,22,0.00
2019,09,15,17,23,0.10
2019,09,15,17,24,0.10
2019,09,15,17,25,1.20
2019,09,15,17,26,8.90
2019,09,15,17,27,6.50
2019,09,15,17,28,4.80
2019,09,15,17,29,5.70
2019,09,15,17,30,0.10
2019,09,15,17,31,13.40
2019,09,15,17,32,5.20
2019,09,15,17,33,5.60
2019,09,15,17,34,6.10
2019,09,15,17,35,4.80
2019,09,15,17,36,14.10
2019,09,15,17,37,13.10
2019,09,15,17,38,17.10
2019,09,15,17,39,16.30
2019,09,15,17,40,16.20
2019,09,15,17,41,18.50
2019,09,15,17,42,11.30
2019,09,15,17,43,14.30
2019,09,15,17,44,14.80
2019,09,15,17,45,17.70
2019,09,15,17,46,4.90
2019,09,15,17,47,0.00
2019,09,15,17,48,4.60
2019,09,15,17,49,0.30
2019,09,15,17,50,4.80
2019,09,15,17,51,4.50
2019,09,15,17,52,10.80
2019,09,15,17,53,0.00
2019,09,15,17,54,4.20
2019,09,15,17,55,20.10
2019,09,15,17,56,3.40